Previsão horária em Aathal

Hoje, 14 Abril, Quarta-feira

Tempo Temperatura Precipitação Vento Pressão Humidade
00:00 -2°C° 0 mm 1 m/s 721 mmHg 86%
01:00 -2°C° 0 mm 1 m/s 721 mmHg 88%
02:00 -3°C° 0 mm 1 m/s 720 mmHg 88%
03:00 -3°C° 0 mm 1 m/s 720 mmHg 89%
04:00 -3°C° 0 mm 1 m/s 720 mmHg 89%
05:00 -3°C° 0 mm 1 m/s 720 mmHg 85%
06:00 -2°C° 0 mm 1 m/s 720 mmHg 82%
07:00 -1°C° 0 mm 1 m/s 720 mmHg 78%
08:00 +1°C° 0 mm 1 m/s 720 mmHg 69%
09:00 +2°C° 0 mm 2 m/s 720 mmHg 60%
10:00 +3°C° 0 mm 3 m/s 719 mmHg 51%
11:00 +5°C° 0 mm 3 m/s 719 mmHg 47%
12:00 +7°C° 0 mm 3 m/s 719 mmHg 43%
13:00 +8°C° 0 mm 3 m/s 718 mmHg 40%
14:00 +7°C° 0 mm 3 m/s 718 mmHg 41%
15:00 +7°C° 0 mm 3 m/s 718 mmHg 42%
16:00 +7°C° 0 mm 3 m/s 717 mmHg 43%
17:00 +5°C° 0 mm 3 m/s 718 mmHg 52%
18:00 +4°C° 0 mm 2 m/s 718 mmHg 61%
19:00 +3°C° 0 mm 2 m/s 718 mmHg 70%
20:00 +1°C° 0 mm 2 m/s 718 mmHg 74%
21:00 +1°C° 0 mm 1 m/s 718 mmHg 79%
22:00 0°C° 0 mm 1 m/s 719 mmHg 84%
23:00 -2°C° 0 mm 1 m/s 718 mmHg 90%

Amanhã, 15 Abril, Quinta-feira

Tempo Temperatura Precipitação Vento Pressão Humidade
00:00 -2°C° 0 mm 1 m/s 718 mmHg 90%
01:00 -2°C° 0 mm 1 m/s 718 mmHg 90%
02:00 -2°C° 0 mm 1 m/s 718 mmHg 90%
03:00 -2°C° 0 mm 1 m/s 718 mmHg 90%
04:00 -2°C° 0 mm 1 m/s 718 mmHg 91%
05:00 -2°C° 0 mm 1 m/s 719 mmHg 89%
06:00 -1°C° 0 mm 1 m/s 719 mmHg 86%
07:00 -1°C° 0 mm 0 m/s 719 mmHg 83%
08:00 +2°C° 0 mm 1 m/s 719 mmHg 76%
09:00 +3°C° 0 mm 1 m/s 718 mmHg 69%
10:00 +4°C° 0 mm 2 m/s 718 mmHg 62%
11:00 +1°C° 0.1 mm 1 m/s 718 mmHg 75%
12:00 +4°C° 0.1 mm 2 m/s 717 mmHg 60%
13:00 +7°C° 0.1 mm 3 m/s 717 mmHg 45%
14:00 +7°C° 0.1 mm 3 m/s 717 mmHg 47%
15:00 +7°C° 0.1 mm 3 m/s 716 mmHg 49%
16:00 +7°C° 0.1 mm 3 m/s 716 mmHg 50%
17:00 +5°C° 0.1 mm 3 m/s 716 mmHg 58%
18:00 +4°C° 0.1 mm 2 m/s 716 mmHg 66%
19:00 +2°C° 0.1 mm 2 m/s 716 mmHg 73%
20:00 +1°C° 0 mm 2 m/s 716 mmHg 78%
21:00 -1°C° 0 mm 2 m/s 717 mmHg 82%
22:00 0°C° 0 mm 1 m/s 717 mmHg 86%
23:00 -1°C° 0 mm 1 m/s 717 mmHg 86%

Depois de amanhã, 16 Abril, Sexta-feira

Tempo Temperatura Precipitação Vento Pressão Humidade
00:00 -1°C° 0 mm 1 m/s 716 mmHg 87%
01:00 -1°C° 0 mm 1 m/s 716 mmHg 87%
02:00 -2°C° 0 mm 1 m/s 716 mmHg 88%
03:00 -2°C° 0 mm 1 m/s 716 mmHg 90%
04:00 -3°C° 0 mm 1 m/s 716 mmHg 91%
05:00 -2°C° 0 mm 1 m/s 716 mmHg 88%
06:00 -1°C° 0 mm 1 m/s 716 mmHg 84%
07:00 -1°C° 0 mm 1 m/s 716 mmHg 81%
08:00 +1°C° 0 mm 2 m/s 716 mmHg 73%
09:00 +3°C° 0 mm 2 m/s 716 mmHg 64%
10:00 +4°C° 0 mm 3 m/s 716 mmHg 56%
11:00 +5°C° 0 mm 3 m/s 715 mmHg 52%
12:00 +8°C° 0 mm 3 m/s 715 mmHg 49%
13:00 +9°C° 0 mm 3 m/s 715 mmHg 45%
14:00 +9°C° 0 mm 3 m/s 714 mmHg 45%
15:00 +9°C° 0 mm 3 m/s 714 mmHg 45%
16:00 +10°C° 0 mm 4 m/s 714 mmHg 45%
17:00 +8°C° 0 mm 3 m/s 714 mmHg 52%
18:00 +5°C° 0 mm 3 m/s 714 mmHg 59%
19:00 +4°C° 0 mm 3 m/s 714 mmHg 66%
20:00 +2°C° 0 mm 3 m/s 715 mmHg 74%
21:00 +2°C° 0 mm 2 m/s 715 mmHg 81%
22:00 -1°C° 0 mm 2 m/s 716 mmHg 88%
23:00 -2°C° 0 mm 2 m/s 715 mmHg 90%

17 Abril, Sábado

Tempo Temperatura Precipitação Vento Pressão Humidade
00:00 -1°C° 0 mm 1 m/s 715 mmHg 92%
01:00 -1°C° 0 mm 1 m/s 715 mmHg 94%
02:00 -1°C° 0 mm 1 m/s 715 mmHg 94%
03:00 -2°C° 0 mm 1 m/s 715 mmHg 95%
04:00 -2°C° 0 mm 1 m/s 715 mmHg 95%
05:00 -1°C° 0 mm 1 m/s 715 mmHg 92%
06:00 0°C° 0 mm 1 m/s 715 mmHg 89%
07:00 +1°C° 0 mm 1 m/s 715 mmHg 86%
08:00 +1°C° 0 mm 2 m/s 715 mmHg 81%
09:00 +2°C° 0 mm 2 m/s 715 mmHg 77%
10:00 +2°C° 0 mm 3 m/s 715 mmHg 73%
11:00 +4°C° 0 mm 3 m/s 715 mmHg 66%
12:00 +7°C° 0 mm 3 m/s 715 mmHg 59%
13:00 +8°C° 0 mm 3 m/s 714 mmHg 53%
14:00 +8°C° 0 mm 3 m/s 714 mmHg 57%
15:00 +7°C° 0 mm 4 m/s 714 mmHg 61%
16:00 +7°C° 0 mm 4 m/s 714 mmHg 64%
17:00 +6°C° 0.1 mm 4 m/s 714 mmHg 71%
18:00 +5°C° 0.1 mm 3 m/s 714 mmHg 78%
19:00 +4°C° 0.1 mm 3 m/s 714 mmHg 84%
20:00 +4°C° 0 mm 2 m/s 715 mmHg 88%
21:00 +3°C° 0 mm 2 m/s 715 mmHg 91%
22:00 +3°C° 0 mm 1 m/s 715 mmHg 95%
23:00 +3°C° 0 mm 1 m/s 715 mmHg 95%

18 Abril, Domingo

Tempo Temperatura Precipitação Vento Pressão Humidade
00:00 +4°C° 0 mm 1 m/s 715 mmHg 95%
01:00 +4°C° 0 mm 1 m/s 715 mmHg 94%
02:00 +4°C° 0.1 mm 1 m/s 715 mmHg 95%
03:00 +4°C° 0.1 mm 1 m/s 715 mmHg 95%
04:00 +4°C° 0.1 mm 1 m/s 715 mmHg 96%
05:00 +4°C° 0.1 mm 1 m/s 715 mmHg 95%
06:00 +4°C° 0.1 mm 1 m/s 715 mmHg 95%
07:00 +4°C° 0.1 mm 1 m/s 715 mmHg 95%
08:00 +5°C° 0.1 mm 1 m/s 715 mmHg 95%
09:00 +4°C° 0.1 mm 2 m/s 715 mmHg 95%
10:00 +4°C° 0.1 mm 2 m/s 715 mmHg 95%
11:00 +5°C° 0.1 mm 2 m/s 715 mmHg 92%
12:00 +5°C° 0.1 mm 2 m/s 715 mmHg 89%
13:00 +6°C° 0.1 mm 2 m/s 715 mmHg 85%
14:00 +6°C° 0.2 mm 2 m/s 715 mmHg 85%
15:00 +6°C° 0.2 mm 2 m/s 715 mmHg 85%
16:00 +7°C° 0.2 mm 2 m/s 715 mmHg 85%
17:00 +7°C° 0.2 mm 1 m/s 715 mmHg 88%
18:00 +6°C° 0.2 mm 1 m/s 715 mmHg 91%
19:00 +6°C° 0.2 mm 1 m/s 715 mmHg 94%
20:00 +6°C° 0.1 mm 1 m/s 715 mmHg 95%
21:00 +5°C° 0.1 mm 1 m/s 715 mmHg 96%
22:00 +5°C° 0.1 mm 1 m/s 716 mmHg 97%
23:00 +5°C° 0.1 mm 1 m/s 715 mmHg 97%

19 Abril, Segunda-feira

Tempo Temperatura Precipitação Vento Pressão Humidade
00:00 +5°C° 0.1 mm 1 m/s 715 mmHg 97%
01:00 +4°C° 0.1 mm 1 m/s 715 mmHg 97%
02:00 +4°C° 0 mm 1 m/s 715 mmHg 97%
03:00 +4°C° 0 mm 1 m/s 715 mmHg 97%
04:00 +4°C° 0 mm 1 m/s 715 mmHg 97%
05:00 +4°C° 0 mm 1 m/s 715 mmHg 97%
06:00 +3°C° 0 mm 0 m/s 715 mmHg 97%
07:00 +4°C° 0 mm 0 m/s 715 mmHg 97%
08:00 +6°C° 0.1 mm 1 m/s 715 mmHg 93%
09:00 +6°C° 0.1 mm 1 m/s 715 mmHg 90%
10:00 +6°C° 0.1 mm 2 m/s 714 mmHg 87%
11:00 +7°C° 0.1 mm 2 m/s 714 mmHg 81%
12:00 +8°C° 0.1 mm 2 m/s 714 mmHg 75%
13:00 +9°C° 0.1 mm 2 m/s 714 mmHg 69%
14:00 +9°C° 0.1 mm 2 m/s 714 mmHg 68%
15:00 +9°C° 0.1 mm 2 m/s 713 mmHg 68%
16:00 +10°C° 0.1 mm 1 m/s 713 mmHg 68%
17:00 +9°C° 0.1 mm 1 m/s 713 mmHg 73%
18:00 +8°C° 0.1 mm 1 m/s 713 mmHg 78%
19:00 +7°C° 0.1 mm 1 m/s 713 mmHg 83%
20:00 +7°C° 0 mm 1 m/s 713 mmHg 86%
21:00 +6°C° 0 mm 1 m/s 714 mmHg 88%
22:00 +5°C° 0 mm 1 m/s 714 mmHg 91%
23:00 +5°C° 0 mm 1 m/s 714 mmHg 91%
Mostrar mais

Necessitamos do seu Consentimento

A Meteoprog e os seus Fornecedores de Serviços podem armazenar e aceder a dados pessoais como cookies, identificadores do dispositivo ou outras tecnologias semelhantes existentes no seu dispositivo e processar estes dados para personalizar conteúdos e anúncios, assim como funcionalidades nas redes sociais e análise de tráfego.

  • Armazenar e/ou aceder a informações no seu dispositivo

    Os cookies, identificadores do dispositivo ou outras informações podem ser armazenados ou acedidos no seu dispositivo, para os fins acima indicados.

  • Anúncios e conteúdos personalizados, medição de anúncios e conteúdos, dados sobre o público-alvo e desenvolvimento de produtos

    Os anúncios e os conteúdos podem ser personalizados com base num perfil. Podem ser adicionados dados adicionais para uma maior personalização dos anúncios e dos conteúdos. A eficácia dos anúncios e dos conteúdos pode ser medida. Podem ser obtidas informações sobre o público que visualizou os anúncios e os conteúdos. Estes dados podem ser usados para desenvolver ou melhorar sistemas, softwares ou a experiência do utilizador.

Ao clicar em "Eu concordo”, permitirá o uso de cookies, identificadores do dispositivo e web beacons mencionados ou outras tecnologias semelhantes. As configurações do navegador do seu dispositivo podem ser alteradas.

Para certos fins, podem ser invocados interesses legítimos ao invés de consentimento. Pode ler mais informação sobre este assunto na nossa Política de Privacidade e Cookies.